Wind_Speed
89 93 93 89 85 82 82 83 82 81 81 81 82 83 82 80 80 81 82 82 82 82 82 82 82 82 81 80 79 79 79 79 78 78 77 76 75 75 75 75 74 73 72 72 73 74 75 75 74 73 71 70 69 68 67 66 65 63 60 59 58 56 55 52 49 47 46 45 45 46 46 47 47 47 48 50 52 55 57 59 60 60 60 59 58 58
88 92 92 89 85 83 83 83 82 81 80 82 83 84 82 80 80 81 83 83 83 82 81 81 81 80 80 81 81 80 79 79 79 79 78 76 75 75 75 75 75 74 73 72 73 74 76 76 75 74 72 71 70 69 68 68 66 63 61 60 59 57 56 54 51 48 46 46 46 47 48 49 49 49 49 49 51 53 55 57 59 60 60 60 60 59
87 90 92 90 87 84 84 83 82 81 79 80 82 84 83 80 79 81 84 85 85 84 82 81 79 79 80 82 83 81 79 79 80 80 79 77 76 76 76 76 75 74 73 72 72 74 75 77 76 75 73 72 70 69 68 68 67 65 62 61 59 58 56 54 52 49 47 46 46 47 49 50 51 51 51 51 51 52 54 56 58 59 60 61 61 60
86 89 92 91 88 86 85 84 83 80 77 76 79 82 83 80 78 80 85 87 86 85 83 81 79 78 79 80 81 79 78 78 79 80 80 79 77 77 77 76 76 74 73 71 70 71 74 75 76 76 74 72 71 70 69 68 68 66 64 61 59 57 56 54 53 51 50 49 48 48 49 50 52 53 54 54 53 53 54 55 56 58 59 60 61 61
84 89 92 92 89 87 86 85 84 80 76 75 77 80 81 79 77 78 85 87 87 86 84 82 80 79 79 79 78 77 76 77 78 79 80 79 79 78 78 77 76 74 72 69 68 69 71 73 75 75 74 73 71 70 69 69 68 67 65 62 60 57 56 55 54 53 52 51 50 50 49 49 50 52 54 55 55 55 54 54 55 56 57 58 59 60
83 88 92 92 90 88 87 87 85 81 77 76 77 79 81 80 77 77 82 86 87 86 84 82 81 81 81 80 78 77 75 76 77 78 80 80 80 79 79 78 76 74 71 69 67 68 69 72 73 74 74 73 72 71 70 69 69 68 67 63 60 58 56 55 55 54 54 53 52 51 50 49 49 50 52 54 55 56 56 55 55 55 55 56 58 59
82 88 91 92 91 89 88 88 87 83 79 78 79 81 82 82 80 77 78 83 86 86 85 83 82 82 82 81 79 77 75 75 76 77 79 80 80 80 79 78 77 74 71 69 67 67 68 70 72 73 74 73 72 71 70 70 69 69 68 65 62 59 57 57 56 56 55 54 53 52 51 50 49 49 50 52 53 55 56 56 55 54 54 55 56 57
80 86 90 92 91 89 88 89 89 86 82 78 80 84 86 86 83 80 79 81 83 85 85 84 83 83 83 82 79 76 74 74 75 77 78 80 80 81 80 79 78 75 72 70 68 67 68 69 71 72 73 73 73 72 71 70 69 69 68 67 64 61 59 58 57 57 56 55 54 53 52 51 49 49 49 50 51 52 54 55 55 54 54 54 54 55
79 84 89 92 92 90 89 91 92 89 84 79 79 82 86 87 87 85 83 82 82 84 85 85 85 84 84 82 79 76 74 74 75 76 78 79 80 81 81 80 79 77 74 71 69 68 68 69 70 72 73 73 73 72 71 70 69 69 68 67 65 63 61 59 58 58 57 55 54 53 52 51 50 49 49 49 49 50 52 53 54 54 54 54 54 54
77 83 89 93 93 92 91 93 95 93 88 81 77 78 81 85 87 88 87 86 85 85 85 86 86 86 85 84 81 78 76 75 75 76 77 79 80 81 81 81 80 79 76 73 71 69 68 69 70 71 72 73 73 73 72 71 69 68 67 67 66 65 63 62 60 59 58 56 55 53 52 51 51 50 49 49 48 49 50 51 53 54 54 54 54 54
75 82 88 92 94 94 93 95 97 96 92 84 78 75 75 79 83 87 89 89 88 87 86 85 85 86 86 85 83 81 79 76 75 76 77 78 80 80 81 81 81 80 78 76 73 70 69 68 69 70 71 72 73 73 72 71 70 68 67 66 65 65 64 63 62 60 59 57 56 54 53 53 52 51 50 49 48 48 48 49 50 52 53 54 54 54
74 80 86 91 94 95 95 96 99 99 95 87 79 74 71 72 76 81 86 88 88 86 85 85 84 84 85 85 84 83 81 79 77 77 78 78 79 80 80 81 81 80 79 77 75 72 70 68 68 69 71 72 73 73 72 71 70 69 67 66 65 64 64 63 62 61 59 58 57 56 55 55 54 53 52 51 50 49 48 48 48 49 50 51 52 52
72 78 84 90 94 96 96 97 99 100 98 92 83 76 72 71 71 75 79 82 84 84 84 84 83 83 83 84 84 83 82 80 79 79 79 79 79 80 80 80 80 80 79 78 76 74 71 69 68 69 70 71 72 73 72 72 70 69 68 66 65 64 63 63 62 61 60 59 58 58 57 57 56 54 54 53 52 50 49 48 47 47 48 48 48 48
69 76 82 88 93 96 97 98 100 102 102 98 90 83 77 73 71 71 74 77 79 80 82 82 82 82 82 82 82 82 81 80 80 80 79 79 79 79 79 79 79 79 78 78 76 74 72 70 69 68 69 70 71 72 72 72 71 69 68 67 65 64 63 62 62 61 60 60 60 59 59 59 58 57 56 55 54 52 51 49 48 47 46 45 45 46
66 73 79 85 91 95 97 99 101 104 105 102 97 89 82 76 72 71 72 74 76 78 79 80 81 81 81 81 80 80 80 79 79 79 79 79 79 79 78 78 78 78 78 77 76 75 73 71 69 68 68 69 70 71 72 72 71 70 69 67 66 65 64 63 62 61 60 60 60 61 61 60 60 59 58 57 55 54 52 50 49 47 44 43 43 45
62 70 77 83 89 93 97 99 102 104 105 103 100 94 88 80 76 73 73 75 76 77 77 78 79 80 80 80 80 78 78 78 78 78 79 79 79 78 78 77 78 78 77 77 76 75 74 72 70 69 68 69 70 71 72 72 71 70 69 68 66 65 64 63 62 62 61 61 61 62 62 62 61 60 59 58 57 55 54 52 50 47 43 41 43 46
58 65 73 80 85 90 95 99 102 104 104 103 101 97 92 86 81 78 76 75 76 77 77 77 78 78 79 79 78 77 76 76 77 77 77 77 77 77 77 77 77 77 77 77 76 75 74 72 71 69 69 69 69 70 71 72 71 71 70 68 67 66 65 64 63 62 62 62 63 63 63 63 62 61 60 59 57 56 55 53 51 48 44 42 44 46
54 61 69 75 81 87 92 96 100 103 104 103 101 98 94 90 86 82 78 76 76 77 78 78 77 77 77 78 78 77 76 75 75 76 76 76 76 76 76 76 76 77 77 77 77 76 74 73 71 70 69 69 69 70 71 71 72 71 70 69 68 67 66 64 64 63 63 63 64 64 64 64 63 62 61 60 59 57 56 55 53 51 48 47 47 47
50 57 64 71 77 83 88 93 97 101 102 102 100 98 95 92 89 85 81 78 78 79 80 79 77 76 76 77 78 78 76 75 75 74 74 75 75 75 75 75 75 76 76 77 77 76 75 73 72 71 70 70 70 70 71 71 72 71 71 70 69 68 66 65 65 65 64 64 65 65 64 64 64 63 62 61 60 59 58 57 56 55 54 53 52 52
46 52 59 66 73 78 83 89 94 98 100 101 100 98 96 93 91 88 85 82 81 81 82 81 78 76 75 76 76 77 76 75 74 74 74 74 74 74 74 74 74 75 76 76 76 76 75 74 73 72 71 71 71 71 71 72 72 72 71 71 70 69 67 66 66 66 65 65 65 65 65 65 65 64 64 63 62 61 60 59 59 58 57 57 56 56
43 49 55 62 68 73 78 85 91 95 99 100 99 97 95 94 92 90 88 85 84 84 85 83 80 77 75 74 74 74 75 75 74 74 74 74 73 73 73 73 73 74 75 75 76 76 75 75 74 73 73 73 72 72 72 72 72 72 72 72 71 70 69 68 67 66 65 65 65 65 65 65 65 65 64 64 63 62 61 60 60 59 59 58 58 57
42 46 52 58 64 69 76 81 87 92 96 97 96 95 94 93 92 91 90 88 87 88 88 87 84 79 75 72 71 72 73 74 74 74 74 73 73 73 73 73 73 73 74 74 75 75 75 75 74 74 74 74 74 73 73 73 73 73 73 72 72 71 70 70 69 67 66 65 64 64 64 64 64 64 64 64 63 62 60 59 59 58 58 58 58 58
40 44 48 53 60 66 72 77 82 88 92 95 95 95 94 93 92 91 91 90 90 91 92 91 87 82 76 72 70 69 69 71 72 73 73 72 73 73 73 73 73 73 73 73 74 74 75 75 74 74 74 74 74 75 75 75 75 74 74 74 73 72 72 72 71 70 69 67 66 65 64 63 62 61 61 61 60 59 58 57 56 55 55 57 58 58
38 41 45 50 56 62 67 72 78 83 88 92 94 95 94 92 92 91 91 90 91 93 94 93 89 84 79 74 70 68 67 68 70 71 71 72 73 73 73 73 72 72 72 73 73 73 74 74 74 73 73 73 73 74 75 75 76 76 75 75 74 74 73 73 73 73 72 71 69 68 66 65 63 62 61 60 58 57 55 54 53 53 54 56 57 57
36 39 42 46 52 57 63 68 74 79 84 89 91 92 92 91 90 90 90 90 91 92 94 92 89 86 83 78 74 70 67 67 68 69 69 70 71 72 72 73 72 72 72 72 72 72 72 72 72 72 71 71 71 72 73 74 75 76 76 76 76 75 75 74 74 74 73 73 72 71 70 69 68 66 65 63 61 59 57 56 56 56 56 57 57 56
34 36 39 42 47 53 59 65 70 75 80 85 88 89 90 89 89 88 87 88 89 91 93 92 90 88 85 81 76 72 69 68 68 68 68 68 69 70 71 72 72 71 70 70 70 70 70 70 70 70 70 70 69 69 69 71 72 74 75 76 76 76 76 76 75 75 74 74 73 72 72 71 71 70 69 68 67 65 63 61 61 60 60 59 58 58
33 34 36 39 43 48 54 60 65 70 76 80 84 87 88 88 87 86 86 87 88 90 92 92 90 87 84 81 76 73 70 70 70 69 68 67 67 67 69 70 70 69 68 68 68 68 67 67 68 68 68 68 68 68 67 68 68 70 71 73 74 75 76 77 76 76 75 74 74 73 72 72 71 71 71 71 70 69 68 67 65 64 63 62 61 60
31 32 34 36 40 45 50 56 61 66 71 76 80 83 85 85 84 84 85 86 87 88 89 90 88 85 82 78 74 71 69 70 72 72 70 68 66 66 67 67 67 67 66 66 66 65 65 64 65 65 65 66 66 67 67 66 66 67 68 69 71 72 74 75 76 76 76 75 75 74 73 72 71 71 70 70 70 70 69 68 67 65 64 62 61 61
31 31 32 34 37 41 46 52 57 63 67 72 76 79 81 82 82 83 84 84 84 84 86 87 86 83 80 77 72 67 65 68 71 72 71 69 68 67 67 66 65 65 65 64 64 63 63 63 63 62 62 63 64 64 65 65 65 66 66 66 67 69 70 72 73 74 75 75 75 74 74 73 72 71 70 70 69 69 68 67 65 64 62 61 60 59
30 30 31 33 35 38 43 48 54 59 64 68 72 75 78 80 81 81 82 81 81 81 83 84 84 82 79 74 68 64 63 67 70 71 70 69 69 69 68 66 65 65 64 64 63 62 63 63 62 61 61 61 61 62 63 63 64 64 64 64 65 66 67 68 69 70 71 72 72 73 72 72 71 70 70 69 68 67 66 64 63 61 60 59 58 58
30 30 31 32 34 36 40 45 50 55 60 64 68 72 74 76 78 78 78 77 78 80 81 82 81 80 77 72 66 62 63 67 69 69 68 68 69 70 68 67 66 66 65 64 63 63 63 63 62 62 61 60 60 60 61 61 62 62 62 63 63 63 64 64 65 65 66 67 68 68 69 69 69 68 67 66 65 64 62 61 60 59 58 58 58 57
30 30 31 32 33 35 38 42 47 52 57 61 65 68 71 73 74 74 74 75 76 77 78 79 79 79 77 72 66 64 64 66 67 66 66 66 68 70 69 68 67 66 65 65 64 64 64 63 63 62 61 61 60 60 60 60 60 60 61 61 61 61 62 61 62 62 62 63 63 64 64 64 64 64 63 62 61 60 59 58 58 57 57 57 57 57
30 30 30 31 32 34 36 40 45 49 54 58 62 65 67 70 71 72 72 73 74 74 75 76 77 77 76 71 66 63 63 64 64 65 65 65 67 69 70 69 68 66 66 65 65 65 64 64 63 63 62 61 61 60 60 60 60 60 60 60 60 60 60 60 60 60 60 60 60 60 60 60 60 60 60 59 59 58 57 57 57 57 57 57 57 57
29 29 30 31 32 33 35 38 42 47 51 55 59 62 64 67 68 69 70 70 70 71 72 73 74 75 74 70 65 61 61 63 64 64 64 65 67 69 70 70 69 67 66 65 65 65 65 64 64 63 62 62 61 60 60 59 59 59 59 59 59 59 59 59 59 59 59 58 58 58 58 59 59 58 58 58 58 57 57 57 57 57 56 57 57 56
29 29 30 30 31 32 34 36 40 44 48 53 56 59 62 64 66 67 67 67 68 68 69 71 72 73 72 69 64 61 61 62 64 64 63 64 66 68 70 70 69 67 66 65 64 64 64 64 65 64 63 62 61 61 60 59 59 59 59 59 59 59 58 58 58 58 58 58 58 58 58 58 57 57 57 57 57 57 57 57 57 57 57 57 56 56
29 29 29 30 31 32 33 35 38 41 45 50 54 57 60 62 63 65 65 66 66 66 66 67 69 70 70 69 66 62 61 62 63 63 62 63 65 67 69 69 69 67 66 64 63 62 62 63 64 64 64 63 62 62 61 60 59 58 58 58 58 58 58 58 58 58 58 57 57 58 57 57 57 57 57 57 57 57 57 57 57 57 57 56 56 56
30 29 29 30 31 32 33 34 37 39 43 47 51 54 57 60 61 63 64 64 64 64 64 65 65 66 67 68 67 64 61 61 62 62 62 62 63 65 67 69 69 68 66 64 62 61 60 60 61 62 63 63 63 62 61 60 59 59 58 58 58 58 58 58 58 57 57 57 57 57 57 57 57 57 57 57 57 58 57 57 57 56 56 56 55 55
30 30 30 30 30 31 32 33 35 38 41 44 48 52 55 58 60 61 62 63 63 63 63 63 63 64 65 65 66 64 61 60 60 61 61 60 60 62 65 67 67 67 67 65 64 61 59 58 59 59 61 62 62 62 62 61 61 60 60 59 59 58 58 58 58 57 57 57 57 57 57 57 57 57 57 57 57 57 57 56 56 56 56 55 55 55
30 30 30 30 30 31 32 33 34 36 39 42 46 49 53 56 58 60 61 62 62 62 62 62 62 63 63 65 65 64 62 60 60 60 61 59 58 58 61 63 65 66 67 67 66 63 61 59 58 58 58 59 59 60 61 61 61 61 61 60 59 59 59 58 58 58 57 57 57 57 57 57 57 57 57 57 57 57 57 57 56 56 56 56 55 55
30 30 30 30 31 31 32 33 34 35 37 40 43 46 50 53 56 58 60 61 62 62 62 62 62 62 62 64 65 65 63 61 60 61 61 60 58 57 57 59 61 64 66 68 68 66 63 62 60 58 57 56 56 57 58 60 61 61 61 61 60 60 60 60 59 59 58 58 58 57 57 57 57 58 58 58 58 57 58 57 57 57 57 56 56 55
30 30 30 30 31 31 32 32 33 34 36 38 41 44 47 50 54 56 58 60 61 61 61 61 61 61 62 63 65 66 65 63 62 62 63 63 61 58 56 56 57 60 62 65 67 65 61 62 62 60 58 56 55 54 55 56 58 59 60 60 60 61 61 61 60 60 60 59 58 58 57 58 58 58 59 59 59 59 59 58 58 57 57 58 57 57
30 30 30 30 31 31 32 32 33 34 35 37 39 42 45 49 52 55 57 59 60 61 61 61 61 62 62 63 65 67 67 64 62 62 64 64 63 60 58 56 55 55 57 59 62 64 65 65 63 62 60 58 56 54 54 55 56 56 57 58 59 59 59 59 59 60 59 59 59 59 58 58 59 60 60 60 59 59 59 58 58 58 58 58 58 58
30 30 30 30 31 31 31 32 32 33 35 36 39 41 44 47 50 53 56 58 60 61 62 62 62 63 63 63 65 67 68 66 62 61 63 64 64 63 60 57 54 52 51 53 55 59 62 63 63 62 62 61 59 58 56 56 56 57 58 58 58 57 57 58 59 59 58 58 59 59 58 59 60 61 60 60 59 59 59 59 59 59 59 59 58 58
30 30 30 31 31 31 31 31 32 33 34 36 38 40 42 45 48 51 54 57 59 60 61 62 63 63 63 64 65 67 69 68 64 60 61 63 64 64 61 58 54 50 48 47 49 52 56 59 61 62 62 61 60 60 60 59 59 59 59 59 58 58 58 59 59 59 58 58 58 58 58 58 59 60 59 59 58 58 59 59 59 59 59 59 59 59
31 31 31 31 31 31 31 31 31 31 33 35 37 40 42 44 47 50 53 55 58 59 61 62 63 63 63 64 65 66 69 69 66 62 60 62 63 63 61 58 55 52 50 47 47 48 51 55 59 61 61 60 60 60 60 60 60 60 59 59 58 59 60 60 60 59 59 60 59 58 58 57 57 57 57 58 58 59 59 59 59 59 59 59 60 60
31 31 32 32 32 32 31 30 30 29 30 32 36 38 41 43 46 48 51 54 56 59 60 62 63 63 64 65 65 66 68 70 69 66 61 60 62 63 62 60 57 55 53 51 49 48 50 54 57 59 60 60 60 60 60 60 60 60 60 59 58 58 59 59 59 60 60 60 60 59 58 57 55 54 54 55 57 58 59 59 59 59 59 60 60 60
31 32 33 33 32 32 31 30 29 28 28 30 33 37 40 42 45 47 50 53 55 58 60 61 63 64 65 65 65 66 67 69 71 70 64 60 60 62 63 62 60 58 56 54 52 51 52 54 56 58 59 59 60 60 60 61 61 61 61 61 61 60 59 59 60 60 60 60 60 59 59 58 56 55 55 55 56 57 59 59 59 59 60 60 60 60
32 32 33 33 33 32 31 30 29 28 27 28 31 34 38 41 44 47 49 52 54 56 58 60 62 63 64 65 65 66 66 68 70 71 68 63 61 62 64 65 64 61 58 56 55 54 54 55 56 57 58 59 59 60 60 60 61 61 62 62 63 62 62 62 62 61 61 60 60 60 59 58 58 58 58 58 58 59 60 60 60 60 60 60 60 61
32 33 34 34 34 33 32 31 30 29 27 26 28 31 35 39 43 46 49 51 53 55 57 59 61 63 64 65 66 66 67 67 68 70 70 67 65 64 66 67 67 66 63 60 58 57 56 56 56 57 57 58 58 59 59 59 60 61 62 62 63 63 63 63 63 63 62 62 61 61 60 59 59 60 60 60 60 61 61 61 60 60 60 60 61 61
33 34 35 35 35 34 33 32 31 29 27 25 25 27 31 35 40 44 48 51 53 55 56 58 60 62 63 65 66 66 67 67 67 68 69 69 68 67 67 68 68 67 66 64 62 60 59 57 57 57 57 57 57 57 57 58 59 60 60 61 62 63 63 63 63 62 62 62 61 61 60 60 60 60 60 60 61 61 61 60 60 60 60 60 60 60
33 34 35 36 35 35 34 33 31 29 27 25 24 25 27 31 36 41 46 49 52 54 56 58 59 61 62 64 65 66 67 67 67 67 68 69 69 68 67 67 66 66 66 65 64 63 61 59 57 56 55 56 56 56 56 57 58 59 59 60 61 62 62 62 62 62 61 61 61 60 60 60 60 60 60 60 60 59 59 58 58 58 58 58 57 57
Wind_Direction
213 213 213 212 211 210 209 209 210 210 212 214 216 217 217 218 218 219 219 219 219 219 219 220 220 220 219 219 219 219 219 220 219 219 219 219 219 220 220 220 221 222 223 224 225 226 226 226 226 226 225 225 225 226 227 228 229 230 229 230 229 229 229 228 228 229 229 228 227 226 225 225 225 225 226 227 227 227 226 225 225 225 225 226 227 227
213 212 212 211 210 209 208 207 207 208 210 213 215 216 216 217 218 219 219 219 218 218 219 219 220 220 219 219 219 219 220 220 219 219 219 219 219 219 219 219 220 221 223 225 226 226 226 226 225 225 225 225 225 225 226 228 229 230 230 230 229 229 228 228 228 228 228 228 227 226 226 225 225 225 225 226 227 227 227 227 227 227 227 227 228 228
212 211 210 210 210 208 207 206 206 206 209 212 214 215 215 215 217 218 220 219 218 217 218 218 218 219 219 219 219 219 220 219 219 219 219 218 218 218 218 218 219 221 223 225 226 226 226 225 225 225 225 224 224 225 225 227 228 230 230 230 229 229 228 228 228 228 227 227 227 227 226 226 226 225 225 225 225 226 227 227 228 228 228 228 229 229
211 210 209 209 209 208 206 205 204 204 206 210 213 215 214 214 214 217 219 219 218 217 217 217 218 218 218 218 219 219 219 219 219 219 218 218 218 217 217 218 219 220 223 225 226 226 225 225 224 224 224 224 224 224 225 225 227 229 230 230 230 229 229 229 229 229 228 228 228 227 227 227 226 226 226 225 225 225 226 227 227 228 229 229 230 231
210 209 208 208 208 207 205 203 202 202 203 207 211 213 213 211 211 213 217 218 218 216 216 216 217 217 218 218 218 219 219 219 219 218 218 217 217 217 217 217 218 220 222 223 225 225 225 224 224 224 224 224 224 224 224 224 226 227 229 230 230 230 229 229 230 229 229 228 228 228 228 227 227 226 226 226 225 225 225 226 226 227 228 229 230 231
210 209 208 207 207 206 204 202 201 200 201 203 206 209 210 208 207 209 213 216 217 216 215 215 216 216 217 217 218 218 219 219 218 218 217 217 217 217 217 217 218 219 220 222 223 223 224 224 224 224 224 224 224 224 224 224 225 226 228 230 230 230 229 229 229 229 229 229 229 229 229 228 227 227 227 226 226 226 226 226 226 227 228 229 230 231
210 208 207 207 206 205 203 201 200 199 199 199 201 203 205 204 203 204 209 214 216 216 214 214 215 215 216 216 217 218 218 218 218 217 217 217 217 216 216 217 217 218 219 220 221 222 223 223 223 224 224 224 224 224 224 224 224 226 227 229 230 230 229 229 229 229 229 229 229 229 229 229 228 228 227 227 227 226 226 226 226 227 227 229 229 230
210 208 207 206 206 205 203 201 199 198 198 196 195 196 198 200 201 202 205 211 214 216 215 214 214 215 215 215 216 216 217 217 217 217 217 217 216 216 216 216 217 217 218 218 219 220 221 222 223 223 224 224 224 224 224 224 224 225 226 228 229 229 229 229 229 229 229 229 229 229 229 229 229 229 228 228 228 227 227 227 227 227 228 229 230 231
210 208 207 206 206 204 202 201 200 199 197 195 193 191 193 196 200 202 204 206 210 213 214 215 215 215 215 215 216 216 216 216 216 216 216 216 216 216 216 217 217 217 217 217 218 219 220 221 222 223 223 224 224 224 224 224 224 225 226 227 229 229 229 229 229 229 230 230 230 229 229 229 229 229 229 229 228 228 228 227 227 227 228 229 230 231
209 208 207 206 205 204 202 201 200 199 198 196 194 191 191 193 197 201 203 205 207 210 212 213 214 214 215 215 216 216 216 216 216 216 216 216 216 216 216 217 217 217 217 217 218 218 219 221 221 222 223 223 223 224 224 224 224 225 225 226 227 229 230 230 230 230 230 230 230 230 230 230 230 230 229 229 229 228 228 228 227 227 227 228 230 231
209 208 207 206 205 204 203 202 201 200 199 198 196 193 191 191 193 197 201 204 206 208 209 210 211 212 214 215 216 217 217 217 217 217 216 216 215 216 216 217 217 217 217 217 217 218 219 220 221 222 222 223 223 223 224 224 224 224 225 225 226 227 229 230 230 231 232 232 231 231 231 231 231 230 230 230 229 229 228 228 228 228 228 229 230 231
209 208 207 206 205 205 203 202 202 201 200 198 197 196 193 191 191 192 195 199 202 204 206 208 209 211 212 214 215 216 217 217 217 217 216 215 215 215 216 216 217 217 218 218 218 218 218 219 221 221 222 222 223 223 223 223 224 224 225 225 225 226 227 229 230 232 233 233 233 232 231 231 231 231 230 230 230 229 229 229 228 228 228 229 230 231
209 208 207 206 206 205 204 203 203 203 201 199 198 197 196 195 192 191 191 193 196 200 203 205 207 209 210 212 214 215 216 216 217 216 216 215 215 215 215 215 216 217 217 218 218 218 218 219 220 221 222 222 222 223 223 223 223 224 224 225 225 226 226 228 229 231 233 234 234 233 232 232 231 231 231 230 230 229 229 229 229 229 229 229 230 231
209 208 207 206 206 205 205 204 204 204 203 201 200 199 199 198 197 194 192 191 192 196 200 203 205 207 209 210 212 213 214 215 215 215 215 214 214 214 214 215 215 216 217 217 218 218 219 219 220 221 222 223 223 222 222 222 223 223 224 224 225 225 226 227 228 230 232 233 234 233 233 232 232 231 231 230 230 229 229 229 229 229 230 230 230 231
210 208 207 207 206 206 205 205 205 206 206 204 203 202 202 202 202 200 196 193 192 193 197 201 204 206 208 209 210 211 212 212 213 213 213 213 213 213 214 214 215 215 216 216 217 218 218 219 220 221 222 223 223 223 222 222 222 223 224 224 225 225 226 226 227 229 230 232 233 233 233 233 233 232 232 231 231 230 230 230 230 230 230 231 230 230
211 209 208 207 207 206 206 205 206 207 208 207 206 205 205 204 205 204 201 197 194 193 195 198 202 205 206 208 209 209 210 210 211 211 211 212 212 213 213 213 214 214 215 215 216 217 218 219 220 221 222 223 223 223 222 222 222 223 224 224 225 226 226 226 227 228 229 231 232 232 233 233 233 233 232 232 232 231 231 230 230 229 229 229 229 228
212 210 208 208 207 207 207 206 207 208 210 210 209 208 206 206 206 206 204 201 197 194 195 197 200 203 205 206 207 208 209 209 210 210 211 211 212 212 213 213 213 214 214 214 215 216 216 218 219 221 222 223 223 223 222 222 222 223 224 224 225 226 226 227 227 228 229 230 231 231 232 233 233 233 233 232 232 232 231 230 229 228 227 226 226 226
213 211 209 208 208 208 208 207 207 209 210 211 211 210 208 207 207 206 205 203 200 197 197 198 200 202 203 205 207 208 208 209 210 210 211 211 211 212 212 213 213 214 214 214 214 214 215 216 218 220 221 222 222 222 222 222 222 223 223 224 225 226 226 227 227 228 228 229 230 231 231 232 232 233 233 233 232 232 231 230 229 227 225 223 223 223
214 212 210 209 209 208 208 208 208 209 211 212 212 211 210 209 208 207 206 204 202 200 199 200 200 201 203 205 206 208 208 209 210 211 211 211 211 212 212 213 213 213 214 214 214 214 214 215 217 218 220 221 222 222 222 222 222 223 223 224 225 225 226 226 227 227 228 228 229 230 231 232 232 232 233 233 232 232 231 230 229 228 226 224 223 223
215 213 211 210 209 209 209 209 209 209 211 212 213 212 211 210 209 208 207 206 204 203 202 202 201 201 202 204 206 207 209 210 210 211 212 212 212 212 213 213 213 213 214 213 213 213 213 214 215 217 219 220 221 221 222 222 222 222 223 224 224 225 225 226 226 227 227 228 228 229 230 231 232 232 233 233 232 232 232 231 231 231 230 228 228 228
217 214 212 210 210 209 209 210 209 210 210 211 212 213 212 211 210 209 208 207 206 205 205 204 203 202 201 202 204 206 208 210 211 212 212 212 213 213 213 214 214 214 214 213 213 213 213 213 214 215 217 218 220 221 221 222 222 222 223 223 224 224 225 225 226 226 227 227 228 228 230 231 232 233 233 233 233 233 233 233 233 233 233 233 233 233
217 215 213 211 210 210 210 210 210 210 210 211 212 213 212 211 211 210 209 208 207 206 206 206 205 203 201 201 203 205 207 209 211 212 212 213 213 213 214 214 214 214 214 213 213 212 212 212 213 213 214 216 217 219 220 221 222 222 223 223 224 224 225 225 226 226 227 227 227 228 229 230 231 232 232 233 233 233 233 234 234 235 235 235 236 236
217 216 214 212 211 210 210 210 210 210 210 211 211 212 212 211 211 210 210 209 207 207 208 208 207 205 203 202 202 204 206 208 210 212 212 213 213 214 214 214 215 214 214 214 213 213 212 212 212 213 213 214 215 216 218 220 221 222 222 223 224 224 225 225 226 226 227 228 228 228 228 229 229 230 231 231 232 232 232 232 233 234 235 235 236 236
217 216 215 213 212 211 211 211 211 211 211 211 211 211 211 211 211 210 210 209 208 208 209 210 209 208 206 205 204 204 206 208 210 212 212 213 214 214 214 215 215 215 215 214 214 214 213 213 213 213 213 213 213 214 216 217 219 221 222 223 223 224 224 225 225 226 227 228 228 229 229 229 229 229 230 230 230 230 229 229 230 232 233 234 235 236
217 216 215 214 213 212 211 211 211 211 211 210 211 211 211 211 211 211 210 209 209 209 210 211 211 210 209 208 207 207 208 209 211 211 212 213 214 214 215 215 215 215 215 215 215 215 215 215 215 214 214 213 213 214 214 216 217 219 221 222 223 224 224 225 225 226 226 227 228 229 230 230 231 231 231 231 231 231 230 230 231 232 234 235 236 238
216 216 215 214 212 212 211 211 210 210 210 210 210 211 211 211 211 211 211 210 210 210 211 212 213 212 211 211 211 211 212 212 212 212 212 213 213 214 214 215 215 215 215 215 215 216 216 216 216 216 215 215 214 214 215 215 216 217 219 220 221 223 223 224 225 225 226 226 227 228 229 230 231 232 233 234 234 235 235 235 236 237 238 239 240 242
215 215 214 213 212 211 211 210 210 210 210 210 210 210 210 210 210 211 211 211 210 210 211 213 214 214 214 213 213 214 215 215 215 214 213 213 213 213 214 214 214 215 215 215 216 216 217 217 217 217 216 216 216 215 215 215 216 216 218 219 220 221 222 223 224 225 225 226 227 228 229 230 231 232 234 235 236 237 238 238 239 240 242 242 243 244
214 213 212 211 210 210 209 209 209 209 209 210 210 210 210 210 210 211 211 211 210 210 212 213 214 215 215 215 214 215 215 216 217 216 215 214 213 213 213 213 214 215 215 215 216 216 217 217 218 218 217 217 217 216 216 216 216 216 217 218 219 220 221 222 223 224 225 226 226 227 228 229 231 232 234 235 236 238 239 240 240 241 242 243 244 245
212 211 210 209 208 208 208 208 208 208 208 209 209 209 209 209 210 210 210 210 210 211 212 213 214 215 215 215 214 213 214 216 217 217 216 216 215 215 214 214 214 215 216 216 216 217 217 218 218 218 218 218 217 217 217 217 217 217 217 218 219 220 221 222 222 223 224 225 226 227 228 229 230 232 233 235 236 237 239 239 240 241 242 243 244 245
209 208 207 207 206 206 206 206 206 207 207 208 208 209 209 209 209 209 210 210 210 210 211 213 214 215 215 215 213 211 212 215 217 217 217 217 217 216 215 215 215 215 216 217 217 217 218 218 218 218 218 218 218 218 218 218 218 218 218 219 219 220 221 221 222 223 224 225 225 226 227 229 230 231 232 234 235 237 238 239 239 240 241 241 243 244
207 206 205 204 204 203 203 204 204 205 206 207 207 208 208 208 209 209 209 209 209 210 210 211 212 214 214 213 211 209 211 215 216 216 217 217 218 217 216 215 215 216 216 217 218 218 219 219 219 219 219 219 218 218 218 218 218 219 219 219 220 220 221 221 222 223 224 224 225 226 227 228 229 231 232 233 234 236 237 238 238 239 239 240 241 242
206 205 204 202 202 201 201 202 202 203 204 205 206 207 207 208 208 208 208 208 209 209 210 210 211 212 213 212 210 209 211 213 214 214 215 216 217 217 217 216 216 216 217 217 218 219 220 220 221 220 220 220 219 219 219 219 219 219 219 220 220 221 221 222 222 223 224 225 225 226 227 228 229 230 231 232 233 234 235 236 237 237 238 239 239 240
205 203 202 201 200 200 199 200 201 201 202 203 204 205 206 207 207 207 207 208 208 208 209 209 210 211 211 210 209 208 209 211 212 213 213 214 216 217 217 217 216 216 217 218 218 219 220 221 222 221 221 221 220 220 220 220 219 219 219 220 220 221 221 222 223 223 224 225 226 226 227 227 228 229 230 230 231 232 233 234 235 235 236 236 237 237
204 203 201 200 199 198 198 199 199 200 201 202 203 204 204 205 206 206 206 206 207 207 207 208 208 209 209 208 205 204 207 210 211 212 212 214 216 217 217 217 217 217 217 218 218 219 219 220 221 221 221 221 221 221 221 221 220 220 220 220 220 221 221 222 222 223 224 225 226 226 227 227 228 228 229 230 230 231 232 232 233 234 234 235 235 236
203 202 200 199 198 197 197 197 198 199 200 201 201 202 203 204 204 205 205 205 206 206 206 206 207 207 207 205 201 200 204 208 210 211 212 214 216 217 218 218 217 217 217 218 218 219 219 219 220 220 220 221 221 221 221 221 221 221 221 220 220 221 221 221 222 223 224 225 225 226 227 227 228 229 229 230 230 231 231 232 232 233 233 234 235 235
202 201 200 199 198 197 196 196 197 198 198 199 200 201 202 202 203 204 204 204 204 204 204 205 205 205 205 203 200 199 202 206 209 210 211 214 217 218 219 218 218 217 216 216 217 218 219 219 220 220 220 220 220 220 221 221 221 221 221 221 221 221 221 221 222 223 223 224 225 226 227 227 228 229 230 230 231 231 232 232 233 233 234 234 235 236
201 200 199 198 197 197 196 196 196 197 197 198 199 200 201 201 202 202 203 203 203 203 203 203 203 203 203 202 200 198 200 204 207 208 210 213 216 218 219 219 218 217 216 216 216 217 218 219 219 220 220 220 220 220 220 221 221 221 221 220 220 220 221 221 222 222 223 224 225 225 226 227 228 229 230 230 231 231 232 233 234 234 235 235 236 237
200 199 199 198 197 197 196 196 196 196 196 197 198 199 200 200 201 201 202 202 202 202 202 202 201 201 201 200 198 196 197 201 205 207 208 210 213 217 219 219 219 218 217 217 216 217 217 218 219 220 220 220 220 220 220 220 221 221 221 221 220 220 220 221 221 222 223 223 224 225 226 227 228 229 229 230 231 232 232 233 234 235 235 236 237 238
200 198 198 197 197 196 196 196 196 196 195 196 196 198 199 200 200 201 201 201 202 202 202 201 200 200 199 198 196 194 194 198 202 204 204 206 209 213 217 218 219 218 218 218 218 217 217 218 218 219 220 220 220 220 220 221 221 222 222 222 221 221 221 221 222 222 223 224 225 226 226 227 228 229 230 230 231 232 232 233 234 235 236 237 237 238
199 198 197 196 196 196 196 196 196 196 195 195 195 196 197 199 199 200 200 201 201 201 201 201 200 199 198 197 195 192 192 194 198 200 201 201 203 207 212 216 218 218 218 218 218 218 217 218 219 220 220 221 221 221 221 221 222 222 223 223 223 223 223 223 223 223 224 225 225 226 227 228 229 229 230 231 231 232 233 234 234 235 236 237 238 239
198 197 197 196 196 196 196 197 197 196 196 195 195 195 196 198 199 199 200 200 200 200 201 200 200 199 198 197 195 192 191 192 195 197 198 198 198 200 204 209 213 216 217 218 219 218 217 219 220 220 220 220 220 221 221 222 223 223 223 224 224 224 224 224 225 225 226 226 226 227 228 229 230 230 231 231 231 232 233 234 235 236 236 237 238 239
197 196 196 196 196 196 196 197 197 197 197 195 195 195 195 197 198 199 199 199 199 200 200 200 200 199 198 197 195 193 191 192 194 195 196 196 196 196 198 201 205 209 212 215 216 217 218 219 220 220 219 217 216 217 219 221 222 223 224 224 224 224 224 225 226 226 227 227 227 227 228 229 230 231 231 232 232 233 233 234 235 236 237 238 238 239
195 195 195 195 195 195 195 196 197 197 197 197 196 195 195 196 197 198 198 199 199 199 200 200 200 199 199 198 196 194 192 192 194 195 196 196 195 194 193 194 197 201 205 209 212 214 216 217 218 218 219 218 217 217 217 219 221 222 224 224 224 224 225 225 226 226 227 228 228 229 229 230 231 232 232 233 233 234 235 235 236 237 238 239 239 240
193 193 193 193 193 193 194 195 196 197 198 198 197 196 195 196 196 197 198 199 199 199 199 200 200 200 199 199 198 196 193 193 194 195 196 196 195 193 190 189 190 193 198 203 207 211 213 215 216 217 218 218 218 219 219 220 221 222 224 225 226 226 226 226 227 227 227 229 229 230 231 231 232 233 234 234 235 235 236 236 237 238 238 239 240 241
192 191 190 190 191 191 192 193 194 196 198 198 198 197 196 196 196 197 198 199 199 199 200 200 200 199 199 200 200 198 196 194 194 195 196 197 195 193 189 187 186 188 192 197 201 206 210 212 214 215 217 218 218 219 220 220 221 222 224 225 226 227 228 228 228 229 229 230 230 231 232 232 234 235 236 236 236 236 236 237 237 238 239 240 240 241
191 189 188 188 189 189 189 189 190 192 195 198 198 197 197 197 197 197 198 198 199 199 200 200 200 200 200 200 201 200 198 197 196 196 196 197 196 195 192 188 186 187 190 193 197 202 206 210 212 214 215 216 218 219 220 221 221 222 222 223 224 226 227 228 228 229 229 230 230 231 231 231 232 233 236 237 238 238 238 237 237 238 239 239 240 241
190 189 187 187 187 187 185 184 184 186 191 196 198 197 197 197 197 197 198 198 198 199 199 200 200 200 200 201 201 201 201 200 198 198 197 198 198 198 197 194 192 191 191 193 196 200 204 208 211 213 215 216 218 219 221 221 222 222 223 223 224 224 225 227 228 228 229 229 229 230 230 229 229 229 231 234 236 237 238 238 238 238 238 239 239 240
190 189 187 187 186 184 181 180 180 183 187 193 196 197 196 197 197 198 198 198 198 199 199 199 200 200 201 201 201 202 202 202 201 200 199 199 200 202 202 202 200 199 198 198 199 202 205 209 211 213 215 217 218 219 221 222 223 223 224 224 225 225 226 227 228 228 229 229 230 230 230 229 229 228 229 230 232 235 237 238 238 238 238 239 239 240
190 189 188 187 184 181 179 178 179 181 183 189 194 197 196 196 196 197 198 198 198 198 199 199 200 200 200 201 201 202 203 203 203 202 200 200 202 204 206 207 208 208 208 207 207 208 210 211 213 214 216 217 218 219 220 222 223 224 225 225 225 226 226 227 228 229 229 230 230 231 230 230 230 230 230 230 232 234 235 237 237 238 238 239 239 240
191 190 188 186 184 180 178 178 178 178 180 184 191 195 196 196 196 196 197 198 198 198 198 199 199 200 200 200 201 202 202 203 203 203 202 201 202 205 208 210 211 212 212 213 213 213 213 214 214 215 216 216 217 218 220 221 222 223 224 225 225 226 226 227 228 228 229 230 230 231 231 231 231 231 231 232 233 234 235 236 237 238 239 240 240 241
192 191 189 187 184 181 179 177 176 176 177 180 186 193 196 196 195 195 196 197 197 198 198 199 199 199 200 200 200 201 202 202 203 203 202 202 203 205 207 210 211 212 213 213 214 214 214 214 214 215 216 216 217 218 219 221 222 222 223 224 225 226 226 226 227 228 228 229 229 230 230 230 231 231 232 232 233 234 235 236 238 239 240 241 242 243
Height
5472 5477 5482 5489 5496 5502 5508 5514 5520 5527 5533 5537 5541 5544 5547 5552 5558 5562 5565 5569 5573 5578 5582 5586 5590 5593 5597 5601 5605 5608 5612 5616 5620 5624 5628 5632 5636 5640 5643 5647 5651 5654 5657 5660 5663 5666 5668 5671 5674 5677 5680 5683 5687 5690 5693 5696 5697 5699 5704 5707 5710 5712 5715 5717 5720 5722 5725 5726 5728 5730 5733 5735 5737 5739 5741 5742 5745 5747 5749 5751 5753 5755 5757 5759 5762 5763
5466 5471 5478 5485 5492 5499 5504 5510 5516 5522 5528 5532 5536 5539 5543 5549 5555 5559 5560 5563 5568 5573 5577 5582 5586 5590 5593 5597 5600 5604 5608 5612 5616 5620 5624 5628 5632 5636 5640 5644 5647 5651 5654 5657 5660 5662 5665 5668 5671 5673 5677 5680 5683 5687 5690 5693 5694 5697 5700 5703 5706 5709 5711 5715 5717 5719 5722 5724 5726 5728 5730 5732 5735 5737 5738 5740 5742 5744 5746 5748 5750 5752 5754 5757 5759 5761
5461 5467 5474 5482 5488 5494 5500 5506 5512 5518 5524 5527 5530 5533 5538 5545 5552 5555 5555 5558 5563 5568 5572 5577 5581 5585 5588 5592 5596 5601 5605 5608 5612 5617 5621 5625 5628 5632 5636 5640 5644 5647 5651 5654 5657 5659 5662 5665 5667 5670 5673 5676 5680 5683 5687 5691 5693 5694 5696 5699 5702 5705 5707 5711 5714 5717 5720 5722 5724 5725 5727 5730 5732 5734 5736 5738 5740 5742 5743 5745 5747 5749 5752 5754 5756 5758
5456 5462 5470 5477 5483 5489 5495 5501 5508 5514 5520 5523 5525 5529 5535 5542 5547 5549 5549 5552 5557 5563 5567 5572 5577 5580 5583 5587 5592 5597 5601 5605 5608 5612 5617 5621 5625 5629 5632 5636 5640 5644 5647 5651 5653 5656 5659 5662 5664 5667 5670 5673 5676 5679 5683 5687 5691 5692 5692 5695 5698 5702 5705 5709 5712 5715 5717 5719 5721 5723 5725 5727 5729 5731 5733 5735 5737 5739 5741 5742 5744 5746 5748 5751 5754 5756
5452 5458 5464 5470 5477 5484 5490 5497 5503 5509 5515 5519 5521 5524 5530 5536 5540 5542 5544 5548 5552 5558 5563 5568 5572 5576 5580 5584 5589 5593 5597 5601 5604 5608 5612 5617 5621 5625 5628 5632 5636 5640 5643 5647 5650 5653 5656 5658 5661 5664 5667 5670 5673 5676 5680 5683 5687 5691 5691 5691 5694 5699 5703 5708 5711 5712 5715 5717 5718 5720 5722 5723 5726 5728 5730 5732 5734 5736 5738 5740 5742 5743 5746 5748 5751 5753
5447 5452 5458 5465 5472 5478 5484 5491 5497 5504 5509 5513 5516 5519 5524 5529 5532 5536 5540 5544 5548 5553 5559 5563 5567 5572 5576 5581 5585 5589 5593 5597 5600 5604 5608 5612 5617 5621 5624 5628 5632 5636 5639 5643 5646 5649 5652 5655 5658 5661 5664 5667 5670 5673 5677 5680 5684 5688 5690 5689 5691 5696 5701 5705 5707 5709 5711 5713 5715 5717 5719 5720 5722 5724 5727 5729 5731 5733 5735 5737 5739 5741 5743 5745 5747 5749
5442 5447 5454 5461 5468 5474 5480 5487 5493 5498 5503 5507 5510 5513 5518 5522 5525 5529 5535 5539 5543 5548 5554 5558 5562 5567 5572 5577 5581 5584 5588 5592 5595 5599 5604 5608 5612 5616 5620 5624 5628 5632 5635 5639 5642 5645 5649 5652 5655 5658 5661 5663 5667 5670 5673 5676 5680 5683 5687 5688 5690 5693 5699 5702 5703 5705 5707 5710 5712 5714 5717 5718 5719 5721 5723 5726 5728 5730 5732 5734 5737 5739 5741 5742 5743 5744
5439 5444 5451 5458 5465 5471 5477 5484 5488 5492 5497 5501 5504 5507 5511 5515 5518 5522 5527 5534 5539 5543 5548 5554 5558 5563 5568 5572 5576 5579 5583 5587 5591 5595 5599 5603 5607 5612 5616 5620 5623 5627 5631 5634 5638 5642 5645 5648 5651 5654 5657 5660 5663 5667 5670 5673 5676 5679 5682 5685 5688 5691 5695 5698 5700 5702 5704 5706 5708 5710 5713 5715 5717 5719 5721 5723 5725 5727 5729 5732 5734 5736 5737 5739 5741 5742
5435 5441 5447 5454 5461 5467 5474 5479 5483 5487 5491 5496 5498 5501 5503 5507 5511 5515 5520 5527 5533 5539 5543 5548 5553 5558 5563 5567 5570 5574 5578 5582 5586 5590 5594 5599 5603 5607 5611 5615 5619 5623 5627 5630 5634 5637 5641 5644 5647 5651 5654 5657 5660 5663 5666 5670 5673 5676 5679 5682 5685 5688 5692 5695 5696 5698 5700 5701 5702 5706 5710 5712 5714 5717 5719 5720 5722 5724 5726 5728 5730 5732 5733 5735 5738 5740
5431 5436 5442 5448 5454 5461 5467 5472 5477 5480 5485 5490 5493 5496 5498 5501 5505 5510 5515 5520 5527 5532 5537 5543 5548 5554 5558 5562 5566 5570 5574 5578 5582 5586 5590 5594 5598 5603 5607 5611 5615 5618 5622 5626 5630 5633 5637 5640 5644 5647 5650 5653 5657 5660 5663 5666 5670 5673 5676 5679 5682 5686 5689 5691 5693 5694 5696 5697 5699 5702 5706 5709 5711 5713 5715 5718 5719 5720 5722 5725 5726 5727 5729 5732 5735 5737
5427 5431 5437 5442 5449 5456 5462 5466 5470 5474 5479 5485 5489 5492 5495 5498 5502 5506 5511 5516 5522 5527 5533 5538 5544 5550 5554 5559 5562 5567 5571 5575 5579 5582 5586 5590 5594 5598 5602 5607 5611 5615 5618 5622 5626 5629 5633 5636 5640 5643 5647 5650 5653 5657 5660 5663 5666 5670 5673 5676 5679 5682 5686 5687 5689 5690 5691 5693 5697 5700 5702 5706 5708 5710 5712 5715 5717 5718 5719 5721 5723 5725 5727 5729 5732 5734
5423 5427 5433 5438 5445 5452 5457 5462 5466 5469 5474 5480 5486 5490 5493 5496 5499 5503 5507 5512 5518 5524 5530 5535 5541 5546 5551 5555 5559 5563 5567 5572 5575 5578 5582 5586 5590 5594 5598 5602 5607 5611 5615 5618 5622 5626 5629 5633 5636 5639 5643 5646 5650 5653 5657 5660 5663 5667 5670 5673 5676 5679 5682 5683 5685 5686 5687 5690 5694 5698 5702 5704 5706 5707 5710 5712 5714 5716 5717 5718 5720 5723 5726 5727 5730 5732
5420 5424 5429 5434 5440 5447 5453 5458 5462 5466 5470 5476 5481 5485 5488 5492 5496 5500 5504 5509 5515 5521 5526 5532 5537 5542 5547 5551 5556 5560 5564 5568 5571 5574 5578 5582 5586 5590 5594 5599 5603 5607 5611 5615 5619 5623 5626 5629 5633 5636 5639 5643 5646 5650 5653 5657 5660 5663 5667 5670 5673 5676 5678 5680 5682 5684 5686 5688 5692 5696 5699 5701 5702 5704 5706 5708 5710 5712 5714 5715 5718 5720 5722 5724 5727 5730
5417 5421 5426 5431 5436 5442 5447 5453 5458 5462 5465 5469 5473 5477 5481 5486 5492 5497 5501 5506 5512 5517 5523 5529 5534 5539 5544 5548 5552 5557 5560 5564 5567 5571 5575 5578 5582 5586 5590 5595 5599 5603 5607 5611 5616 5619 5623 5626 5630 5633 5636 5640 5643 5647 5650 5653 5657 5660 5663 5667 5669 5672 5675 5677 5680 5682 5684 5687 5690 5693 5695 5697 5699 5701 5702 5704 5705 5707 5709 5712 5714 5717 5718 5721 5725 5731
5414 5418 5422 5427 5432 5437 5443 5448 5453 5456 5457 5461 5466 5471 5477 5484 5490 5495 5499 5503 5508 5514 5520 5526 5531 5536 5541 5545 5548 5552 5556 5560 5564 5567 5571 5574 5578 5582 5586 5591 5595 5599 5603 5608 5612 5616 5619 5623 5627 5630 5633 5637 5640 5643 5647 5650 5654 5657 5660 5663 5666 5669 5672 5674 5677 5679 5682 5685 5687 5689 5692 5693 5694 5696 5698 5699 5701 5703 5705 5708 5711 5713 5716 5720 5726 5732
5411 5415 5419 5423 5427 5432 5438 5444 5448 5450 5452 5455 5461 5468 5476 5482 5487 5491 5495 5498 5503 5509 5516 5522 5527 5532 5537 5540 5544 5548 5552 5556 5560 5563 5567 5570 5574 5578 5582 5587 5591 5595 5599 5604 5608 5612 5616 5620 5623 5627 5630 5634 5637 5640 5644 5647 5650 5654 5657 5660 5663 5666 5668 5671 5674 5677 5681 5683 5684 5686 5687 5688 5690 5692 5694 5696 5698 5700 5703 5705 5708 5711 5714 5719 5725 5729
5407 5411 5415 5419 5423 5428 5433 5438 5443 5446 5448 5452 5458 5465 5472 5477 5481 5485 5489 5494 5499 5505 5511 5517 5522 5527 5532 5536 5540 5544 5548 5552 5556 5559 5563 5567 5570 5574 5578 5582 5587 5591 5595 5600 5604 5608 5612 5616 5620 5623 5627 5631 5634 5637 5640 5644 5647 5650 5653 5656 5659 5662 5665 5668 5671 5675 5678 5679 5681 5682 5683 5683 5685 5688 5692 5693 5695 5697 5700 5702 5706 5709 5713 5717 5722 5724
5404 5408 5411 5415 5420 5424 5429 5434 5438 5442 5444 5448 5453 5459 5465 5470 5476 5481 5485 5490 5496 5501 5507 5512 5517 5522 5527 5531 5535 5540 5543 5547 5552 5555 5559 5563 5567 5570 5574 5578 5582 5587 5592 5596 5600 5605 5609 5613 5617 5620 5624 5627 5630 5633 5637 5640 5643 5647 5650 5653 5656 5659 5662 5665 5669 5672 5674 5675 5676 5677 5679 5681 5683 5685 5687 5690 5692 5694 5697 5700 5703 5706 5709 5712 5715 5717
5401 5404 5408 5412 5416 5420 5424 5429 5434 5438 5442 5445 5449 5454 5460 5466 5472 5478 5483 5487 5492 5497 5502 5508 5514 5518 5523 5527 5530 5535 5539 5543 5548 5552 5556 5559 5563 5567 5571 5575 5579 5584 5588 5593 5597 5602 5606 5610 5613 5617 5621 5624 5627 5630 5633 5636 5639 5643 5646 5649 5652 5655 5659 5663 5666 5667 5669 5670 5672 5673 5675 5677 5679 5682 5684 5687 5689 5691 5694 5696 5699 5702 5704 5706 5708 5710
5398 5402 5405 5409 5412 5416 5421 5425 5429 5434 5438 5441 5445 5450 5457 5463 5469 5475 5479 5483 5487 5492 5498 5504 5510 5515 5519 5523 5527 5532 5537 5541 5545 5549 5552 5556 5560 5564 5568 5572 5576 5581 5585 5590 5594 5598 5603 5607 5610 5614 5617 5620 5622 5626 5629 5632 5636 5639 5642 5645 5648 5652 5656 5659 5662 5662 5663 5665 5667 5669 5671 5673 5676 5678 5681 5684 5686 5688 5690 5693 5695 5697 5700 5702 5703 5705
5397 5399 5402 5405 5409 5413 5417 5421 5425 5429 5433 5437 5442 5447 5453 5459 5465 5471 5475 5479 5484 5490 5496 5502 5507 5511 5516 5521 5526 5530 5534 5538 5542 5545 5548 5552 5557 5561 5565 5569 5573 5578 5582 5587 5591 5595 5599 5603 5607 5610 5613 5616 5619 5622 5625 5628 5632 5635 5638 5642 5645 5648 5652 5655 5657 5658 5659 5661 5663 5666 5668 5670 5672 5675 5677 5680 5682 5684 5686 5689 5692 5694 5697 5699 5700 5702
5394 5397 5399 5402 5406 5410 5413 5417 5421 5426 5431 5436 5441 5446 5452 5457 5462 5467 5471 5476 5482 5487 5493 5498 5502 5507 5513 5518 5523 5528 5532 5536 5538 5541 5545 5549 5554 5558 5562 5566 5571 5575 5579 5583 5587 5591 5595 5599 5602 5605 5608 5611 5615 5618 5622 5625 5628 5631 5634 5637 5641 5644 5647 5649 5652 5654 5656 5657 5660 5662 5664 5667 5669 5672 5674 5677 5679 5681 5683 5686 5689 5691 5693 5696 5697 5698
5392 5394 5397 5400 5403 5407 5410 5413 5418 5423 5428 5434 5440 5444 5448 5453 5458 5463 5468 5474 5479 5484 5489 5493 5498 5505 5511 5517 5521 5526 5530 5533 5535 5539 5543 5547 5551 5555 5559 5563 5568 5572 5576 5580 5583 5587 5591 5594 5597 5601 5604 5607 5610 5614 5617 5621 5624 5627 5631 5634 5637 5640 5643 5646 5648 5650 5652 5654 5657 5659 5662 5665 5667 5669 5672 5673 5675 5677 5680 5684 5687 5689 5691 5693 5695 5696
5390 5392 5395 5398 5401 5404 5407 5412 5417 5421 5426 5432 5436 5439 5444 5449 5455 5460 5465 5471 5476 5481 5486 5491 5497 5505 5511 5515 5519 5523 5527 5530 5533 5537 5541 5545 5548 5552 5557 5561 5565 5568 5572 5576 5580 5583 5587 5590 5593 5596 5599 5603 5606 5609 5613 5617 5620 5624 5627 5630 5633 5636 5639 5642 5644 5647 5649 5651 5653 5656 5658 5661 5663 5666 5667 5669 5671 5674 5677 5680 5684 5687 5689 5690 5691 5692
5388 5391 5393 5395 5398 5402 5405 5410 5414 5418 5423 5428 5433 5437 5442 5448 5453 5459 5464 5470 5475 5481 5486 5492 5497 5503 5508 5512 5516 5521 5524 5528 5531 5535 5539 5542 5546 5551 5555 5559 5562 5564 5568 5572 5576 5580 5583 5586 5589 5592 5596 5599 5603 5606 5609 5613 5617 5620 5623 5627 5629 5632 5635 5638 5641 5643 5646 5648 5650 5652 5654 5657 5659 5661 5663 5666 5667 5670 5673 5676 5678 5681 5683 5685 5686 5688
5387 5389 5391 5394 5397 5400 5403 5407 5411 5415 5421 5426 5431 5436 5441 5447 5452 5457 5464 5469 5475 5480 5485 5489 5494 5498 5502 5508 5513 5519 5523 5526 5528 5532 5536 5539 5543 5548 5552 5555 5558 5561 5565 5569 5573 5577 5579 5582 5585 5589 5593 5596 5599 5602 5606 5609 5613 5616 5619 5622 5626 5628 5631 5634 5637 5639 5642 5644 5647 5649 5651 5653 5655 5657 5659 5662 5664 5667 5669 5672 5674 5676 5678 5681 5683 5685
5387 5388 5391 5393 5395 5398 5401 5405 5409 5413 5418 5423 5428 5433 5438 5444 5449 5455 5461 5466 5471 5476 5481 5485 5489 5494 5500 5507 5512 5517 5522 5524 5527 5530 5533 5537 5541 5546 5549 5552 5555 5559 5562 5566 5570 5573 5575 5578 5582 5586 5589 5593 5596 5599 5602 5606 5609 5612 5616 5618 5622 5624 5627 5630 5633 5635 5638 5641 5643 5645 5647 5650 5652 5654 5656 5658 5660 5663 5666 5668 5671 5673 5676 5678 5680 5681
5386 5388 5390 5392 5394 5397 5400 5403 5407 5412 5416 5421 5426 5431 5436 5442 5447 5453 5457 5462 5467 5472 5478 5482 5487 5492 5498 5504 5510 5515 5520 5521 5523 5526 5531 5535 5538 5542 5546 5549 5553 5556 5559 5563 5566 5569 5572 5575 5579 5582 5586 5589 5593 5596 5600 5602 5606 5609 5612 5615 5618 5621 5623 5626 5629 5631 5634 5637 5639 5642 5644 5646 5648 5651 5652 5655 5657 5659 5662 5664 5667 5670 5673 5674 5675 5677
5385 5387 5389 5391 5393 5395 5398 5402 5405 5410 5414 5418 5423 5428 5433 5439 5445 5450 5454 5459 5465 5472 5477 5481 5485 5490 5496 5501 5507 5512 5517 5518 5519 5522 5528 5532 5535 5539 5543 5547 5551 5554 5556 5559 5563 5567 5570 5573 5576 5579 5582 5586 5589 5593 5596 5599 5602 5606 5609 5612 5614 5617 5620 5622 5625 5628 5630 5633 5635 5638 5640 5643 5645 5647 5650 5652 5654 5656 5658 5661 5664 5666 5669 5670 5672 5673
5384 5386 5388 5390 5392 5394 5397 5400 5404 5407 5412 5416 5421 5426 5431 5437 5442 5446 5451 5458 5464 5470 5475 5478 5483 5487 5493 5498 5505 5511 5514 5514 5516 5520 5525 5529 5532 5536 5540 5545 5549 5551 5553 5556 5560 5564 5567 5569 5572 5575 5579 5582 5586 5589 5592 5596 5599 5602 5606 5609 5612 5614 5617 5619 5622 5624 5627 5629 5632 5634 5637 5640 5642 5644 5646 5649 5651 5653 5655 5658 5660 5662 5665 5667 5669 5671
5384 5385 5387 5389 5391 5393 5396 5399 5402 5406 5410 5414 5419 5423 5429 5434 5439 5445 5451 5457 5463 5468 5471 5476 5480 5485 5491 5497 5503 5508 5510 5511 5512 5517 5522 5525 5528 5532 5537 5542 5546 5548 5551 5553 5557 5560 5563 5566 5570 5573 5576 5579 5583 5586 5590 5593 5596 5599 5602 5605 5608 5612 5614 5616 5619 5621 5624 5626 5629 5632 5634 5637 5639 5641 5643 5646 5648 5650 5652 5655 5657 5659 5661 5664 5666 5669
5383 5385 5386 5388 5390 5392 5395 5398 5401 5404 5408 5412 5417 5422 5427 5432 5437 5443 5449 5455 5460 5464 5469 5474 5479 5483 5488 5494 5499 5503 5505 5507 5510 5514 5519 5522 5526 5530 5535 5539 5542 5545 5549 5551 5553 5556 5559 5564 5568 5571 5574 5577 5581 5584 5587 5590 5593 5596 5599 5602 5605 5608 5611 5613 5616 5618 5621 5623 5626 5629 5631 5633 5636 5638 5640 5642 5645 5647 5649 5652 5654 5656 5658 5661 5663 5666
5383 5384 5386 5388 5390 5392 5394 5397 5400 5403 5407 5411 5415 5420 5425 5430 5435 5441 5447 5452 5457 5462 5467 5472 5477 5482 5487 5492 5497 5501 5503 5505 5508 5512 5515 5519 5523 5528 5533 5537 5539 5542 5546 5548 5551 5553 5557 5561 5565 5569 5572 5576 5578 5581 5584 5587 5591 5593 5596 5598 5602 5604 5607 5610 5613 5615 5618 5620 5623 5626 5628 5630 5632 5635 5637 5639 5641 5644 5646 5649 5651 5653 5655 5658 5660 5662
5382 5384 5386 5388 5389 5392 5394 5396 5399 5402 5405 5409 5413 5418 5423 5428 5433 5439 5444 5449 5454 5460 5465 5470 5475 5480 5485 5491 5496 5500 5502 5503 5506 5510 5513 5516 5520 5526 5530 5534 5537 5539 5542 5546 5549 5552 5555 5559 5562 5567 5571 5573 5577 5579 5582 5585 5588 5591 5593 5596 5599 5602 5605 5607 5611 5613 5615 5618 5620 5623 5625 5627 5629 5632 5633 5635 5638 5641 5643 5645 5647 5649 5652 5653 5655 5657
5382 5384 5386 5387 5389 5391 5393 5396 5398 5401 5404 5408 5412 5416 5421 5426 5431 5437 5442 5447 5452 5457 5462 5467 5472 5477 5482 5488 5493 5497 5499 5501 5504 5508 5511 5513 5517 5523 5527 5531 5534 5537 5540 5543 5547 5550 5553 5556 5559 5563 5567 5571 5574 5578 5580 5583 5586 5588 5591 5594 5597 5599 5602 5605 5607 5610 5613 5615 5617 5620 5622 5624 5626 5628 5630 5633 5636 5638 5640 5642 5643 5646 5647 5649 5651 5652
5382 5384 5386 5387 5389 5391 5393 5395 5398 5400 5403 5407 5411 5415 5419 5424 5429 5434 5439 5444 5450 5454 5459 5464 5469 5474 5480 5485 5490 5494 5497 5499 5502 5505 5509 5511 5515 5520 5523 5527 5531 5535 5539 5542 5545 5548 5551 5554 5557 5561 5564 5567 5572 5575 5578 5581 5584 5587 5589 5592 5594 5597 5599 5602 5604 5607 5609 5612 5614 5616 5618 5621 5623 5625 5627 5630 5633 5635 5637 5638 5640 5642 5643 5645 5647 5649
5382 5383 5385 5387 5389 5391 5393 5395 5397 5400 5403 5406 5409 5413 5418 5422 5427 5432 5437 5442 5447 5452 5457 5462 5466 5472 5477 5482 5488 5492 5496 5498 5500 5503 5507 5509 5512 5516 5520 5524 5529 5534 5537 5541 5544 5547 5549 5552 5556 5559 5562 5565 5568 5572 5576 5579 5582 5584 5587 5589 5592 5594 5597 5599 5602 5603 5606 5608 5610 5612 5614 5617 5619 5622 5624 5627 5629 5631 5633 5634 5636 5638 5640 5642 5644 5646
5381 5383 5385 5387 5389 5391 5393 5395 5397 5399 5402 5405 5408 5412 5416 5421 5425 5430 5435 5440 5445 5449 5454 5459 5464 5468 5473 5479 5485 5490 5494 5497 5498 5501 5505 5508 5511 5514 5517 5522 5527 5533 5537 5539 5542 5546 5549 5551 5554 5557 5560 5562 5565 5569 5572 5575 5578 5581 5583 5585 5588 5591 5593 5596 5598 5600 5602 5604 5607 5609 5611 5614 5616 5618 5620 5622 5625 5627 5629 5630 5632 5634 5636 5638 5640 5642
5380 5382 5384 5386 5388 5390 5392 5394 5396 5398 5401 5404 5407 5411 5415 5419 5423 5428 5432 5437 5442 5447 5451 5456 5461 5465 5470 5475 5481 5487 5491 5494 5496 5498 5502 5506 5509 5512 5516 5521 5526 5531 5535 5539 5542 5544 5547 5549 5552 5554 5557 5560 5563 5567 5570 5572 5575 5577 5580 5583 5586 5589 5591 5593 5595 5597 5600 5602 5604 5606 5608 5610 5612 5614 5617 5619 5621 5623 5625 5627 5629 5631 5633 5635 5637 5639
5380 5382 5384 5386 5388 5390 5392 5393 5396 5398 5400 5403 5407 5410 5414 5417 5422 5426 5430 5435 5440 5444 5449 5453 5458 5462 5467 5472 5477 5482 5487 5491 5493 5495 5498 5502 5507 5512 5516 5520 5523 5527 5532 5537 5539 5541 5543 5546 5548 5551 5554 5557 5561 5564 5567 5570 5572 5574 5577 5580 5583 5586 5588 5591 5592 5594 5596 5598 5601 5603 5605 5607 5609 5611 5613 5615 5617 5620 5622 5623 5625 5627 5630 5632 5633 5635
5379 5381 5383 5385 5387 5389 5391 5393 5395 5397 5400 5403 5406 5409 5413 5417 5420 5424 5428 5433 5437 5442 5447 5451 5456 5460 5464 5469 5474 5479 5484 5487 5490 5492 5495 5499 5504 5510 5515 5520 5522 5525 5528 5532 5535 5537 5540 5542 5544 5548 5553 5557 5560 5562 5564 5567 5569 5571 5573 5576 5578 5580 5583 5586 5589 5591 5593 5595 5597 5599 5602 5604 5607 5608 5610 5612 5614 5616 5618 5620 5622 5624 5627 5629 5631 5632
5379 5381 5383 5385 5387 5388 5391 5393 5395 5397 5400 5402 5405 5408 5412 5415 5418 5422 5426 5431 5435 5439 5444 5448 5453 5457 5462 5466 5470 5475 5480 5484 5487 5489 5492 5496 5501 5507 5513 5518 5522 5523 5525 5527 5531 5534 5537 5539 5541 5544 5548 5553 5557 5561 5564 5566 5568 5569 5572 5573 5575 5577 5580 5583 5586 5588 5590 5591 5593 5595 5597 5600 5603 5605 5606 5608 5610 5612 5614 5617 5619 5621 5623 5625 5627 5628
5378 5380 5382 5384 5386 5388 5390 5392 5394 5397 5399 5402 5404 5407 5410 5413 5416 5420 5424 5428 5432 5437 5441 5445 5449 5454 5458 5462 5467 5472 5477 5480 5484 5487 5490 5493 5497 5503 5509 5515 5519 5522 5524 5526 5528 5531 5533 5536 5538 5541 5544 5547 5550 5554 5556 5560 5562 5565 5567 5569 5572 5574 5577 5579 5582 5584 5586 5587 5589 5591 5593 5596 5598 5600 5602 5605 5607 5609 5611 5614 5616 5618 5620 5622 5624 5626
5377 5379 5381 5383 5385 5387 5390 5392 5394 5396 5398 5401 5403 5406 5409 5412 5415 5419 5422 5426 5430 5434 5438 5442 5447 5451 5455 5459 5463 5468 5473 5477 5481 5484 5487 5491 5495 5499 5504 5510 5515 5520 5523 5526 5527 5529 5530 5532 5535 5537 5540 5542 5545 5548 5551 5554 5557 5559 5562 5563 5566 5568 5571 5573 5575 5578 5582 5584 5586 5588 5590 5592 5594 5596 5599 5602 5604 5606 5608 5610 5612 5614 5617 5619 5621 5623
5377 5378 5380 5382 5385 5387 5389 5391 5393 5395 5397 5400 5402 5405 5408 5411 5414 5417 5420 5424 5428 5432 5436 5440 5444 5448 5452 5457 5461 5465 5470 5475 5478 5482 5485 5489 5493 5497 5500 5505 5510 5516 5521 5524 5526 5527 5528 5529 5531 5533 5536 5539 5542 5544 5546 5549 5552 5555 5557 5560 5562 5564 5567 5569 5572 5575 5577 5579 5582 5584 5587 5590 5592 5593 5596 5598 5600 5602 5604 5607 5609 5611 5613 5615 5617 5619
5376 5378 5380 5382 5384 5386 5388 5390 5393 5395 5397 5399 5401 5404 5407 5409 5412 5415 5418 5422 5426 5430 5433 5437 5441 5445 5449 5453 5457 5462 5467 5472 5476 5480 5483 5487 5490 5494 5497 5501 5505 5510 5515 5519 5522 5524 5525 5526 5527 5530 5532 5536 5538 5541 5543 5545 5548 5551 5554 5557 5559 5562 5563 5565 5568 5570 5572 5575 5577 5580 5583 5586 5589 5592 5593 5594 5596 5598 5601 5603 5606 5608 5610 5612 5614 5616
5376 5377 5379 5381 5383 5385 5388 5390 5392 5395 5397 5398 5400 5402 5405 5408 5411 5413 5417 5420 5423 5427 5431 5434 5438 5442 5446 5450 5454 5459 5463 5468 5473 5477 5481 5484 5487 5491 5495 5498 5502 5505 5508 5512 5516 5518 5520 5522 5524 5526 5529 5532 5535 5537 5539 5542 5544 5547 5549 5552 5555 5557 5560 5562 5564 5566 5568 5571 5573 5577 5579 5582 5585 5588 5590 5592 5593 5595 5597 5600 5602 5604 5606 5608 5610 5612
5375 5377 5379 5381 5383 5385 5387 5390 5392 5394 5396 5398 5399 5401 5403 5406 5409 5412 5415 5418 5421 5425 5428 5432 5436 5440 5443 5447 5452 5456 5460 5464 5469 5474 5478 5482 5485 5489 5492 5496 5499 5502 5504 5507 5510 5512 5515 5517 5520 5523 5526 5529 5531 5533 5536 5539 5541 5543 5546 5548 5551 5553 5556 5558 5560 5562 5565 5567 5570 5573 5576 5579 5582 5583 5585 5588 5590 5592 5594 5596 5598 5600 5602 5604 5606 5608
5375 5377 5378 5380 5382 5385 5387 5389 5391 5393 5395 5397 5399 5400 5402 5404 5407 5410 5413 5416 5419 5423 5426 5430 5433 5437 5441 5445 5449 5453 5457 5462 5466 5471 5476 5480 5483 5487 5490 5494 5497 5500 5503 5505 5507 5510 5512 5515 5517 5520 5523 5526 5528 5531 5533 5536 5538 5540 5542 5544 5547 5550 5552 5554 5556 5559 5562 5564 5567 5569 5572 5575 5577 5579 5581 5584 5587 5588 5590 5592 5594 5596 5598 5600 5602 5604
5374 5376 5378 5380 5382 5384 5386 5388 5391 5393 5395 5397 5398 5400 5401 5403 5405 5408 5411 5414 5417 5421 5424 5427 5431 5434 5438 5442 5446 5450 5454 5459 5463 5468 5473 5477 5481 5485 5489 5492 5495 5498 5501 5504 5507 5509 5511 5513 5516 5518 5520 5523 5526 5528 5530 5532 5534 5537 5539 5542 5544 5546 5548 5551 5553 5556 5558 5561 5563 5566 5569 5571 5573 5576 5578 5581 5583 5584 5586 5588 5590 5592 5594 5596 5598 5600
5374 5376 5377 5380 5382 5384 5386 5388 5390 5392 5394 5396 5398 5399 5401 5402 5404 5407 5409 5412 5416 5419 5422 5425 5428 5432 5436 5439 5443 5447 5451 5455 5460 5465 5469 5474 5478 5482 5486 5490 5493 5496 5498 5501 5504 5507 5509 5511 5513 5516 5518 5521 5523 5526 5527 5529 5531 5533 5535 5538 5540 5542 5545 5548 5550 5553 5555 5558 5560 5562 5565 5567 5570 5572 5575 5577 5579 5580 5583 5585 5587 5588 5590 5592 5594 5597